Hourly Data Report for October 14, 2013

All times are specified in Local Standard Time (LST). Add 1 hour to adjust for Daylight Saving Time where and when it is observed.

FORT LIARD
NORTHWEST TERRITORIES

60°14'00.000" N
123°28'00.000" W
213.40 m
2201579
71497
WJL

Download Data

Hourly Data (October 2013)
Hourly Data Report for October 14, 2013
Temp Definition
°C
Dew Point Temp Definition
°C
Rel Hum Definition
%
Wind Dir Definition
10's deg

Wind Spd Definition
km/h
Visibility Definition
km
Stn Press Definition
kPa
Hmdx Definition


Wind Chill Definition


Weather Definition


TIME
00:00 -1.9 -2.9 93   0   99.24     LegendNANA
01:00 -1.0 -2.7 88   0   99.21     LegendNANA
02:00 2.9 -0.9 76 21 6   99.18     LegendNANA
03:00 4.1 -0.6 71 22 15   99.15     LegendNANA
04:00 4.1 -1.1 69 23 11   99.09     LegendNANA
05:00 4.4 -1.3 66 23 13   98.99     LegendNANA
06:00 4.4 -0.9 68 22 13   98.95     LegendNANA
07:00 3.9 -1.1 70 23 17   98.91     LegendNANA
08:00 4.0 -1.2 69 21 9   98.94     LegendNANA
09:00 4.5 -0.9 68 20 7   98.95     LegendNANA
10:00 5.0 -0.6 67 19 4   98.96     LegendNANA
11:00 5.7 0.2 68   0   98.96     LegendNANA
12:00 7.5 1.5 66   0   98.98     LegendNANA
13:00 10.9 1.9 54 23 15   98.94     LegendNANA
14:00 12.4 2.1 49 27 6   98.93     LegendNANA
15:00 12.3 2.3 50 22 11   98.90     LegendNANA
16:00 12.0 2.7 53 21 11   98.84     LegendNANA
17:00 11.4 2.6 55 23 9   98.77     LegendNANA
18:00 9.2 2.3 62 22 13   98.70     LegendNANA
19:00 8.8 2.3 64 22 9   98.65     LegendNANA
20:00 8.2 2.8 69 23 4   98.64     LegendNANA
21:00 7.7 3.7 76 21 6   98.62     LegendNANA
22:00 7.2 4.1 81 21 6   98.59     LegendNANA
23:00 6.8 4.5 85 21 4   98.58     LegendNANA

Notes on Data Quality.

Legend

  • E = Estimated
  • M = Missing
  • NA = Not Available
  • ‡ = Partner data that is not subject to review by the National Climate Archives
Date modified: